Tracking 27380 objects as of 5-Jun-2023
HD Live streaming from Space Station
objects crossing your sky now

DELTA 1 DEB

Track DELTA 1 DEB now!
10-day predictions


NORAD ID: 7085
Int'l Code: 1973-086CD
Perigee: 1,353.1 km
Apogee: 1,507.7 km
Inclination: 102.1 °
Period: 114.3 minutes
Semi major axis: 7801 km
RCS: 0.072 m2 (small)
Launch date: November 6, 1973
Source: United States (US)
Launch site: AIR FORCE WESTERN TEST RANGE (AFWTR)

Note: This is SATELLITE DEBRIS
Your satellite tracking list
Your tracking list is empty




NASA's NSSDC Master Catalog

Two Line Element Set (TLE):
1  7085U 73086CD  23156.03855345  .00000129  00000-0  99678-3 0  9998
2  7085 102.0548 263.6880 0099041 181.8235 355.3572 12.59925759276757
Source of the keplerian elements: AFSPC